This is the latest recevied weather packets stored in our database for station/object FW1079. If no packets are shown the sender has not sent any weather packets the latest 10 day(s).
| Time | Temp. | Humidity | Pressure | Rain* | Wind** | Luminosity | Snow |
|---|---|---|---|---|---|---|---|
| 1777955964 | 13.33° C | 83% | 1015 hPa | 0 mm | - | - | - |
| 1777955367 | 12.78° C | 84% | 1015 hPa | 0 mm | - | - | - |
| 1777954164 | 12.78° C | 83% | 1015 hPa | 0 mm | - | - | - |
| 1777952967 | 12.78° C | 83% | 1015 hPa | 0 mm | - | - | - |
| 1777952664 | 12.78° C | 83% | 1015 hPa | 0 mm | - | - | - |
| 1777952363 | 12.78° C | 83% | 1015 hPa | 0 mm | - | - | - |
| 1777951163 | 12.78° C | 82% | 1015 hPa | 0 mm | - | - | - |
| 1777950864 | 12.78° C | 83% | 1015 hPa | 0 mm | - | - | - |
| 1777950263 | 12.78° C | 84% | 1015 hPa | 0 mm | - | - | - |
| 1777948163 | 12.22° C | 84% | 1016 hPa | 0 mm | - | - | - |
| 1777947864 | 11.67° C | 84% | 1016 hPa | 0 mm | - | - | - |
| 1777946063 | 12.78° C | 84% | 1016 hPa | 0 mm | - | - | - |
| 1777945464 | 12.78° C | 84% | 1016 hPa | 0 mm | - | - | - |
| 1777940966 | 11.67° C | 83% | 1016 hPa | 0 mm | - | - | - |
| 1777940664 | 11.67° C | 83% | 1016 hPa | 0 mm | - | - | - |
| 1777937964 | 12.78° C | 84% | 1017 hPa | 0 mm | - | - | - |
| 1777934963 | 12.78° C | 81% | 1017 hPa | 0 mm | - | - | - |
| 1777934363 | 12.78° C | 80% | 1017 hPa | 0 mm | - | - | - |
| 1777931663 | 12.22° C | 81% | 1017 hPa | 0 mm | - | - | - |
| 1777931064 | 12.78° C | 81% | 1018 hPa | 0 mm | - | - | - |
| 1777927164 | 13.33° C | 83% | 1018 hPa | 0 mm | - | - | - |
| 1777924463 | 13.89° C | 82% | 1017 hPa | 0 mm | - | - | - |
| 1777922063 | 14.44° C | 78% | 1017 hPa | 0 mm | - | - | - |
| 1777921463 | 15° C | 77% | 1017 hPa | 0 mm | - | - | - |
| 1777921164 | 15.56° C | 77% | 1017 hPa | 0 mm | - | - | - |
* Rain latest hour (hover to see other rain measurements)
** Current wind speed in m/s (hover to see current wind gust speed)